Wind_Speed
17 18 19 18 19 20 18 16 15 15 14 12 8 5 4 4 6 7 7 8 8 9 9 10 11 11 12 13 14 13 12 12 12 12 12 11 11 11 10 9 8 7
13 14 16 19 21 22 21 18 17 16 13 11 9 6 6 6 7 8 8 9 9 10 11 12 13 14 15 16 16 16 15 15 14 14 13 13 12 12 11 10 9 9
9 10 12 16 20 22 22 19 19 16 10 8 8 7 7 8 10 10 10 11 12 13 14 14 15 15 16 16 16 17 16 16 15 14 14 13 13 12 11 10 10 9
7 7 8 11 16 20 21 19 20 19 13 9 8 8 9 10 12 12 12 13 14 14 14 14 15 15 15 15 16 16 16 15 14 13 13 12 12 11 10 9 8 8
6 5 5 8 12 16 17 17 19 21 20 15 9 10 12 12 12 13 14 15 15 15 15 14 14 14 14 14 14 15 14 14 13 12 11 10 10 9 8 6 6 5
4 5 6 8 11 13 15 16 17 20 23 20 12 11 13 13 13 14 14 15 15 15 15 14 14 13 13 13 13 13 13 12 11 11 11 10 9 8 6 5 4 3
3 5 8 10 10 12 15 15 15 17 20 19 14 12 15 15 14 15 15 15 15 14 15 14 14 14 13 13 13 13 13 12 11 10 9 9 8 8 7 6 6 5
3 4 6 8 8 11 14 14 16 19 19 18 17 16 17 18 17 17 16 15 15 15 15 15 14 14 14 14 13 13 12 12 11 10 9 9 8 7 7 7 7 6
7 5 5 6 7 9 11 13 17 22 21 20 20 20 21 20 19 19 18 18 17 17 16 15 15 15 14 14 14 14 13 13 12 11 10 10 9 8 8 8 8 7
8 8 7 5 7 8 9 13 21 25 24 23 23 22 23 22 21 20 20 19 19 19 18 17 16 16 16 16 15 15 14 13 13 12 11 10 9 8 8 8 8 8
9 10 8 5 8 9 10 17 25 27 26 25 25 25 24 24 23 23 22 21 21 21 20 20 19 19 19 19 17 17 16 15 14 13 13 12 11 10 9 8 8 8
9 11 10 7 9 11 13 18 24 26 26 27 27 27 26 26 25 25 24 23 23 22 22 22 21 22 22 22 20 20 19 18 16 15 15 14 12 11 10 9 9 8
9 11 11 9 10 12 15 19 24 26 27 28 29 29 28 28 28 27 27 26 25 24 24 24 23 23 24 24 23 23 22 21 19 17 16 15 13 12 11 11 10 10
9 11 12 12 11 13 16 19 23 25 27 30 31 31 31 30 30 29 29 29 28 27 26 25 24 25 26 27 27 26 25 24 22 20 18 16 14 12 12 12 11 11
8 10 12 13 13 14 17 19 22 25 28 31 33 33 33 33 32 32 32 31 30 29 28 26 26 26 27 29 30 30 30 28 25 23 21 20 17 15 13 12 12 12
9 10 12 13 14 16 18 20 22 26 29 31 33 35 36 36 36 35 35 34 33 31 30 29 28 29 29 30 32 34 34 31 29 28 27 24 21 16 14 13 13 14
12 12 12 13 14 16 18 20 22 24 27 28 30 31 34 37 39 40 39 38 36 35 33 33 33 33 33 34 35 36 34 32 32 33 33 30 25 18 15 15 15 15
14 14 15 15 15 16 18 19 20 21 23 25 26 28 31 36 40 43 43 42 41 39 37 37 37 36 36 37 39 39 38 36 36 36 34 34 30 23 18 16 16 15
16 16 16 17 17 17 17 18 18 18 20 22 23 26 30 33 35 40 46 48 45 43 42 41 40 38 37 39 41 42 42 41 40 36 32 32 29 24 20 17 16 16
19 18 18 18 18 18 18 19 18 18 18 20 21 23 26 29 31 34 42 50 50 47 45 45 41 38 37 38 39 38 37 36 33 29 27 26 24 21 19 18 17 17
21 20 20 20 21 21 21 21 21 21 20 20 21 22 23 26 28 30 34 43 51 51 47 45 41 37 35 34 33 31 29 28 26 23 22 22 21 19 18 17 17 16
22 22 23 23 23 23 23 23 24 24 23 23 24 25 24 24 25 27 27 31 41 46 44 41 37 34 32 31 28 26 25 24 24 23 22 21 20 19 18 18 17 17
25 26 27 28 27 27 26 26 26 26 26 27 27 26 25 24 24 25 26 26 31 36 38 37 34 32 31 30 28 25 24 24 25 24 23 22 21 20 19 19 19 19
28 29 30 31 31 31 30 29 28 26 26 28 28 25 24 24 24 24 26 28 30 33 35 35 32 31 30 31 29 26 24 24 25 25 24 23 21 21 20 20 20 20
31 31 32 33 33 32 32 30 29 27 25 26 26 25 23 23 25 25 25 28 32 35 36 34 30 30 32 33 32 29 25 25 25 25 24 23 22 22 21 21 21 21
32 32 32 32 31 31 31 30 29 28 26 26 26 25 24 24 25 26 26 28 32 36 38 36 32 31 33 36 35 31 27 26 27 26 24 24 23 23 22 22 22 22
Wind_Direction
247 254 257 261 267 273 276 275 271 272 274 267 252 231 209 191 179 170 160 154 147 141 140 137 135 135 131 128 130 130 128 129 127 126 129 130 130 132 134 135 136 136
255 259 258 260 264 269 275 273 263 258 259 252 235 210 193 179 170 165 156 147 141 134 131 128 126 124 120 118 119 118 116 114 113 114 116 116 116 116 114 113 112 109
256 261 258 261 265 269 273 267 255 248 241 234 222 192 176 171 162 157 152 143 137 132 128 125 122 119 117 115 113 111 108 105 105 106 107 107 106 104 102 101 99 99
240 255 262 266 268 269 266 257 249 242 224 213 213 183 165 163 157 153 149 142 138 135 131 127 125 121 118 117 114 112 109 108 108 107 105 103 102 101 100 100 100 101
233 249 259 265 265 263 258 249 248 243 225 207 194 174 162 158 157 153 150 148 144 140 136 132 130 127 124 122 119 117 115 116 117 115 113 111 110 111 109 106 106 105
222 253 264 262 260 257 251 243 243 244 233 216 195 173 163 160 162 159 156 155 151 147 144 140 139 138 137 136 132 129 129 128 129 129 129 131 132 134 137 139 140 138
228 261 268 262 257 249 243 236 225 226 226 213 193 178 171 167 169 166 164 162 159 157 154 152 154 154 154 154 151 149 149 148 150 150 150 152 155 158 163 169 176 183
316 290 272 259 246 237 237 231 211 204 205 198 190 186 179 176 176 173 173 172 169 169 168 168 169 170 172 171 169 170 171 171 173 173 175 177 178 183 188 192 196 202
332 323 293 251 232 235 237 221 196 190 192 193 193 190 184 183 183 180 181 181 180 181 182 184 186 187 189 189 187 189 191 192 194 194 195 195 197 204 213 219 223 227
317 313 305 255 224 230 225 192 177 179 187 192 195 194 190 189 189 189 190 190 190 192 194 197 201 202 204 206 207 208 208 208 208 208 209 212 217 225 234 241 245 248
299 296 295 259 218 219 208 183 174 179 187 192 195 197 196 195 194 196 198 199 200 201 202 206 209 212 215 218 221 222 222 222 221 220 222 226 234 242 250 257 262 263
287 285 282 257 219 214 209 195 189 190 192 194 199 201 202 202 202 202 204 207 209 210 211 213 215 218 223 227 230 231 230 230 230 231 233 237 244 252 260 266 268 267
280 278 275 261 233 219 216 211 207 205 201 200 203 206 207 209 209 209 211 213 216 218 219 221 222 224 228 235 239 239 238 238 236 236 238 242 248 257 264 270 272 271
280 279 278 271 253 235 226 221 218 216 212 208 208 211 212 215 216 217 219 220 221 224 226 228 230 230 232 239 244 246 246 246 244 241 241 243 246 251 258 266 271 272
274 280 281 277 268 252 241 234 228 223 219 216 216 216 218 220 222 224 226 227 228 229 231 233 234 235 236 241 245 249 251 250 247 245 244 243 242 243 250 258 262 264
254 266 275 276 273 261 250 243 237 230 226 225 225 224 225 226 227 229 230 232 233 235 237 239 240 241 243 245 246 246 246 245 245 248 249 245 242 242 246 249 253 257
246 249 258 265 267 262 255 250 244 238 236 237 237 237 237 235 234 235 235 235 237 239 241 243 244 246 248 250 251 250 247 244 245 251 252 247 241 242 246 247 250 256
251 246 248 252 257 258 259 260 255 247 245 246 247 247 246 243 240 239 239 239 238 239 242 244 246 249 253 256 258 260 260 257 255 255 253 244 239 241 246 248 250 256
258 251 247 247 249 252 256 261 262 259 257 256 256 255 252 250 246 242 240 239 238 238 241 243 245 249 255 259 263 264 262 258 256 254 247 240 237 238 241 243 249 257
262 255 251 249 248 250 254 257 261 264 265 266 268 266 260 256 253 248 243 240 239 239 241 243 246 250 254 257 260 259 254 248 245 241 236 233 233 234 237 244 253 262
266 260 256 254 252 252 254 257 260 264 267 270 271 272 269 264 260 259 253 243 238 239 243 246 249 250 250 250 249 245 237 231 227 223 224 227 230 234 241 250 258 264
270 266 264 263 262 260 258 257 257 259 262 266 268 269 273 272 268 268 264 249 239 239 244 247 245 241 239 238 237 231 222 217 216 217 222 227 231 237 244 253 260 264
270 269 268 269 269 268 265 261 259 257 256 259 262 266 270 272 271 268 261 250 238 234 237 238 233 230 231 231 227 223 216 213 216 220 225 230 234 241 248 256 261 265
268 267 267 267 267 267 265 263 260 256 254 254 256 261 267 268 267 263 257 249 239 233 234 232 226 224 227 227 225 221 217 218 222 225 228 232 237 245 253 258 263 269
265 265 265 265 265 264 262 260 258 255 254 253 253 255 260 262 260 257 253 249 243 238 236 233 228 226 226 225 226 224 221 223 228 229 231 236 242 249 256 260 266 274
262 262 263 264 265 264 261 259 259 259 258 257 255 254 257 259 258 254 252 252 249 243 237 234 233 233 232 228 226 225 224 227 232 232 234 240 245 250 256 262 269 275
Height
3139 3139 3140 3140 3141 3141 3142 3142 3142 3142 3141 3140 3140 3139 3138 3138 3138 3138 3139 3139 3139 3139 3139 3140 3140 3140 3141 3141 3142 3143 3144 3144 3144 3145 3146 3146 3147 3147 3147 3148 3148 3149
3138 3138 3138 3139 3139 3139 3140 3141 3141 3140 3140 3140 3139 3139 3139 3139 3139 3139 3139 3139 3139 3139 3140 3140 3140 3141 3141 3142 3142 3143 3143 3144 3144 3145 3146 3146 3147 3147 3148 3148 3148 3149
3137 3137 3137 3137 3137 3137 3138 3138 3139 3139 3139 3139 3139 3138 3139 3139 3139 3139 3139 3139 3139 3140 3140 3140 3141 3141 3142 3142 3143 3143 3144 3144 3145 3146 3146 3147 3147 3147 3148 3148 3149 3149
3135 3135 3135 3135 3135 3135 3135 3136 3137 3138 3137 3138 3138 3138 3138 3139 3139 3140 3140 3140 3140 3140 3141 3141 3141 3142 3142 3143 3143 3144 3144 3145 3146 3146 3147 3147 3147 3148 3148 3149 3149 3149
3133 3133 3133 3133 3133 3133 3133 3134 3135 3136 3136 3136 3138 3138 3138 3139 3139 3140 3140 3140 3140 3141 3141 3142 3142 3143 3143 3144 3144 3144 3145 3146 3146 3147 3147 3147 3148 3148 3149 3149 3149 3150
3131 3131 3130 3131 3131 3131 3131 3132 3133 3134 3135 3136 3138 3138 3138 3139 3140 3140 3140 3140 3141 3141 3141 3142 3143 3143 3144 3144 3145 3145 3145 3146 3147 3147 3147 3148 3148 3148 3149 3149 3149 3150
3130 3129 3128 3128 3129 3129 3129 3130 3130 3132 3134 3136 3138 3138 3138 3139 3139 3140 3140 3141 3141 3141 3142 3142 3143 3143 3144 3144 3145 3145 3145 3146 3146 3147 3147 3147 3148 3148 3149 3149 3149 3149
3128 3127 3127 3127 3127 3127 3128 3128 3128 3131 3134 3136 3137 3137 3138 3138 3139 3140 3140 3141 3141 3141 3142 3142 3143 3143 3144 3144 3144 3145 3145 3146 3146 3146 3146 3147 3147 3147 3148 3148 3149 3149
3126 3126 3126 3125 3125 3126 3126 3126 3127 3130 3133 3135 3136 3137 3137 3138 3138 3139 3139 3140 3141 3141 3141 3142 3143 3143 3143 3144 3144 3144 3145 3145 3145 3145 3146 3146 3146 3147 3147 3147 3148 3148
3126 3126 3125 3125 3125 3126 3126 3125 3126 3129 3132 3134 3135 3136 3136 3137 3138 3138 3139 3139 3140 3140 3141 3141 3142 3142 3143 3143 3144 3144 3144 3144 3145 3145 3145 3146 3146 3146 3146 3146 3147 3147
3126 3126 3125 3125 3125 3126 3126 3126 3127 3129 3131 3133 3134 3135 3136 3136 3136 3137 3138 3139 3139 3140 3140 3141 3141 3141 3142 3142 3143 3143 3143 3144 3144 3144 3145 3145 3145 3145 3145 3145 3146 3146
3125 3125 3125 3125 3125 3125 3126 3126 3127 3128 3130 3131 3133 3134 3134 3135 3135 3136 3137 3137 3138 3138 3139 3139 3140 3140 3140 3140 3141 3142 3142 3142 3143 3143 3144 3144 3144 3144 3144 3144 3144 3144
3124 3124 3123 3124 3124 3125 3125 3125 3126 3127 3128 3129 3131 3132 3132 3133 3134 3134 3134 3135 3136 3137 3137 3138 3138 3139 3139 3139 3140 3140 3141 3141 3142 3142 3142 3142 3142 3143 3143 3142 3143 3143
3122 3122 3122 3123 3123 3123 3123 3124 3125 3126 3126 3127 3128 3129 3130 3131 3131 3132 3132 3132 3133 3134 3135 3136 3136 3137 3137 3137 3137 3138 3139 3139 3140 3140 3140 3140 3141 3141 3141 3141 3141 3141
3121 3121 3121 3121 3121 3121 3121 3122 3123 3123 3124 3125 3126 3127 3127 3128 3128 3129 3129 3129 3130 3131 3132 3133 3134 3134 3135 3135 3135 3136 3136 3136 3137 3138 3138 3138 3138 3138 3139 3139 3139 3139
3119 3119 3119 3119 3120 3119 3119 3120 3120 3121 3122 3123 3123 3123 3124 3124 3125 3126 3126 3126 3127 3128 3129 3130 3131 3132 3132 3133 3133 3132 3132 3133 3134 3135 3135 3136 3136 3136 3136 3137 3137 3137
3117 3117 3117 3117 3117 3117 3117 3118 3118 3119 3120 3120 3121 3121 3121 3121 3122 3123 3123 3123 3124 3124 3125 3126 3127 3128 3129 3129 3129 3129 3129 3130 3130 3131 3132 3133 3133 3134 3134 3134 3135 3135
3114 3115 3115 3115 3115 3115 3115 3115 3116 3117 3117 3117 3118 3118 3118 3118 3119 3119 3120 3120 3120 3120 3121 3122 3123 3124 3125 3125 3125 3126 3127 3127 3127 3128 3129 3129 3130 3130 3131 3132 3132 3132
3111 3112 3112 3112 3112 3112 3112 3112 3113 3114 3114 3114 3115 3115 3114 3114 3114 3115 3115 3115 3116 3116 3116 3117 3119 3121 3122 3121 3121 3121 3121 3122 3122 3124 3125 3125 3127 3128 3128 3129 3130 3130
3108 3109 3109 3109 3109 3109 3109 3109 3109 3110 3111 3111 3111 3111 3110 3110 3110 3109 3109 3110 3111 3112 3112 3113 3115 3117 3118 3118 3117 3116 3116 3116 3118 3120 3121 3123 3124 3125 3126 3127 3127 3127
3106 3106 3106 3106 3106 3106 3106 3106 3106 3106 3106 3106 3106 3106 3106 3106 3106 3105 3104 3104 3106 3107 3108 3109 3111 3113 3114 3113 3113 3112 3112 3114 3116 3117 3119 3120 3122 3123 3123 3124 3124 3124
3102 3103 3103 3103 3103 3103 3103 3103 3103 3103 3102 3102 3102 3102 3102 3102 3103 3102 3101 3101 3102 3103 3104 3105 3106 3108 3109 3109 3109 3110 3110 3112 3113 3115 3116 3117 3119 3120 3121 3121 3121 3122
3099 3099 3099 3099 3099 3099 3100 3100 3099 3099 3099 3098 3098 3098 3098 3099 3099 3099 3099 3099 3099 3100 3100 3099 3100 3103 3105 3105 3106 3107 3108 3109 3111 3112 3113 3114 3116 3117 3117 3117 3118 3118
3094 3095 3095 3095 3095 3095 3095 3095 3095 3095 3095 3095 3094 3095 3095 3096 3096 3096 3097 3097 3097 3097 3097 3096 3097 3099 3101 3103 3104 3105 3106 3107 3108 3109 3110 3112 3112 3113 3114 3114 3115 3115
3090 3090 3090 3090 3091 3091 3091 3091 3091 3091 3091 3091 3091 3091 3091 3092 3092 3093 3093 3094 3094 3095 3094 3094 3096 3097 3098 3100 3101 3103 3104 3105 3105 3106 3108 3109 3109 3110 3111 3111 3111 3112
3085 3086 3086 3086 3086 3087 3087 3087 3087 3087 3087 3087 3087 3087 3087 3088 3089 3089 3089 3089 3090 3091 3091 3091 3093 3094 3095 3096 3098 3100 3102 3103 3103 3104 3105 3105 3106 3107 3107 3108 3108 3109